Regional Weather Roundup
Issued by NWS Mobile, AL

Home | Current Version | Previous Version | Text Only | Print | Product List | Glossary On
Versions: 1 2 3 4 5 6 7 8 9 10 11 12 13 14 15 16 17 18 19 20 21 22 23 24 25 26 27 28 29
000
ASUS44 KMOB 250710
RWRMOB
REGIONAL WEATHER ROUNDUP
NATIONAL WEATHER SERVICE MOBILE AL
200 AM CDT SAT OCT 25 2014

NOTE: "FAIR" INDICATES FEW OR NO CLOUDS BELOW 12,000 FEET WITH NO
      SIGNIFICANT WEATHER AND/OR OBSTRUCTIONS TO VISIBILITY.

  * THESE STATIONS ARE PART OF THE UNIVERSITY OF SOUTH ALABAMA
    MESONET AND ARE NOT UNDER NWS OR FAA QUALITY CONTROL.

ALZ061>064-250800-
COASTAL ALABAMA

CITY           SKY/WX    TMP DP  RH WIND       PRES   REMARKS
MOBILE REG APT CLEAR     53  46  77 N6        30.08S
BROOKLEY FIELD CLEAR     53  46  77 NW3       30.08S
USA CAMPUS*      N/A     52  46  82 CALM      30.09S
DOG RIVER*     NOT AVBL


CITY           SKY/WX    TMP DP  RH WIND       PRES   REMARKS
MOUNT VERNON*    N/A     41  41 100 CALM      30.09R
SARALAND*      NOT AVBL
BAY MINETTE*   NOT AVBL
LOXLEY*          N/A     50  46  87 VRB3      30.07S
ROBERTSDALE*     N/A     48  48 100 N3        30.06S
FAIRHOPE*        N/A     55  46  71 NE3       30.06S
ELBERTA*         N/A     50  48  93 CALM      30.05F
FOLEY*           N/A     55  45  67 NW3       30.03R
GRAND BAY*       N/A     46  46 100 CALM      30.05S
DAUPHIN ISLND* NOT AVBL
BON SCOUR NWR* NOT AVBL
GULF SHORES    CLEAR     51  47  88 CALM      30.06S

$$

ALZ051>060-250800-
INTERIOR SOUTHWEST AND SOUTH CENTRAL ALABAMA

CITY           SKY/WX    TMP DP  RH WIND       PRES   REMARKS
GREENVILLE     CLEAR     50  43  77 N5        30.05F
EVERGREEN      CLEAR     48  45  89 NW5       30.07S
CASTLEBERRY*   NOT AVBL
ATMORE*          N/A     52  45  76 N2        30.07F
DIXIE*           N/A     50  46  87 CALM      30.03S
ANDALUSIA/OPP  CLEAR     54  45  71 N3        30.05S
ANDALUSIA*       N/A     54  45  71 CALM      30.04S
FLORALA APT    CLEAR     53  46  77 NW5       30.06S
FLORALA*         N/A     55  45  67 NW3       30.03R

$$

FLZ001>006-250800-
WESTERN FLORIDA PANHANDLE

CITY           SKY/WX    TMP DP  RH WIND       PRES   REMARKS
PENSACOLA      CLEAR     59  44  57 N8        30.05S
NAS PENSACOLA  CLEAR     55  47  74 N6        30.05S
MILTON         CLEAR     53  44  71 NW5       30.06R
WHTNG S FIELD  CLEAR     55  45  68 N8        30.05F


CITY           SKY/WX    TMP DP  RH WIND       PRES   REMARKS
WALNUT HILL*   NOT AVBL
JAY*             N/A     55  45  67 N5        30.06S
DUKE FIELD     CLEAR     47  44  88 CALM      30.04S
CRESTVIEW      CLEAR     53  45  74 N5        30.06S
VALPARAISO     CLEAR     57  44  63 NW5       30.04R
DESTIN         CLEAR     62  49  62 N7        30.04S

$$

MSZ076-079-250800-
INTERIOR SOUTHEAST MISSISSIPPI

CITY           SKY/WX    TMP DP  RH WIND       PRES   REMARKS
LEAKESVILLE*     N/A     52  45  76 N2        30.09S
AGRICOLA*      NOT AVBL

$$

MARINE OBSERVATIONS

STATION/POSITION TIME  TEMP    WIND        PRES    WAVE
                       AIR SEA DIR/SP/G            HT/PER
                 (UTC) (F)     (DEG/KT/KT) (MB)    (FT/S)
PASCAGOULA       0700   58     340/  6/  7 1018.0F
PETIT BOIS ISLND 0700   67     360/ 12/ 14 1018.3F
GRAND BAY        0600   58     350/  5     1019.0S
KATRINA CUT      0600   67      10/ 12     1018.3R
CEDAR POINT      0500   62     360/  8     1017.6F
E DAUPHIN ISLAND 0556   67     350/  9/ 10 1018.2R
MIDDLE BAY LIGHT 0600   67     360/ 15     1017.3F
USCG MOBILE BAY  0700   59 74  340/  4/  6 1016.9F
STATE DOCKS      0700   60 75              1018.0R
MEAHER PARK      0600   58     360/  3     1018.6S
WEEKS BAY        0600   52                   N/A
FORT MORGAN      0700   69      30/ 15/ 17 1017.3F
12 S ORANGE BCH  0700   71 78   10/ 17/ 21 1017.1R   2/ 3
PENSACOLA BAY    0700   63 73  360/  7/ 10 1017.8F
64 S DAUPHIN ISL 0624   74 78   20/ 14/ 17 1017.9S   3/ 4
67 S FORT MORGAN 0600   73                 1016.9F

$$

SELECTED LOCATIONS ACROSS THE REGION

CITY           SKY/WX    TMP DP  RH WIND       PRES   REMARKS
NEW ORLEANS    CLEAR     63  52  67 N8        30.10S
GULFPORT       CLEAR     52  47  83 NW3       30.08S
PASCAGOULA AP  CLEAR     45  44  97 CALM      30.08S
PASCAGOULA*      N/A     54  48  82 NW2       30.07S
HATTIESBURG    CLEAR     49  47  93 CALM      30.12R
LAUREL         CLEAR     50  43  76 N5        30.12S
MERIDIAN       CLEAR     45  43  93 CALM      30.11S
JACKSON        CLEAR     48  46  93 CALM      30.12S
MONTGOMERY     CLEAR     47  44  90 CALM      30.07S
TROY           CLEAR     44  42  93 CALM      30.06S
KINSTON*       NOT AVBL
GENEVA*          N/A     46  43  87 NE2       30.06S
ASHFORD*         N/A     54  45  71 CALM      30.04S
DOTHAN         CLEAR     50  46  86 NW5       30.06S
PANAMA CITY    CLEAR     49  45  86 CALM      30.02S

$$




USA.gov is the U.S. government's official web portal to all federal, state and local government web resources and services.